CZ-6A DEB, 54517

Orbit data source: Space-Track

CZ-6A DEB, 54517 is space debris in SSO originally from a launch on Fri, 11 Nov 2022 UTC launched from the Taiyaun Space Center, China (TSC). Debris objects in space refer to the collection of defunct objects orbiting the Earth. Examples of debris include non-operational satellites, rocket bodies, and fragments generated from explosions, collisions, or faulty payload assembly.

Loading next visibility...
Identifier
54517, 2022-151JV
Orbit
SSO
Country
Flag of CNCN / PRC
Related business
Manufacturer
SAST
Mission
Spacecraft
Bus & Motor
Unknown
Mass
Unknown
Launch date (UTC)
2022-11-11 (3 years ago)
Launch vehicle
Unknown
Launch site
Taiyaun Space Center, China (TSC)
Object type
Payload
Rocket body
Debris
Shape & HBR
Unknown shape, 0.1 m
Radar Cross Section
Small (<0.1 m²)

Expand to show TLE details & history
Last TLE update: 14 hours ago

TLE from 14 hours ago
0 CZ-6A DEB
1 54517U 22151JV  25349.72822205  .00009555  00000-0  15062-2 0  9994
2 54517  98.6416  44.2755 0075780 126.9583 233.8593 14.70733115163461
Epoch: 2025-12-15T17:28Z
TLE epoch observation values (Epoch: 2025-12-15T17:28:38.385Z)
Latitude
0.00009°
Longitude
57.49293°
Altitude
693.433 km
Speed
7.493 km/s
True Right ascension
02h 57m 06s
True Declination
0° 00' 00"
Sunlit
Object was in full shadow at epoch
Visualization orbit readout
Latitude
Unknown
Longitude
Unknown
Altitude
Unknown
Speed
Unknown
Apparent Right ascension
Unknown
Apparent Declination
Unknown
Sunlit
N/A
Visualization observer readout
Local Sidereal Time
06:13:03
Azimuth
Unknown
Elevation
Unknown
Doppler factor
Unknown
Orbital elements
Apogee altitude
709.12 km
Perigee altitude
602.513 km
Semi-major axis
7,033.953 km
Eccentricity
0.00758
Inclination
98.6416°
RAAN
44.2755°
Arg. of periapsis
126.9583°
True anomaly
233.16194°
Mean anomaly
233.8593°
Eccentric anomaly
233.51023°
Mean motion
3.67912 °/min
Orbital period
97.85 mins
BSTAR
0.0015062
Loading maneuver chart data...
Computing Atmospheric mass density...
Loading historical data...
Loading historical data...
Loading historical data...
Loading historical data...
Loading historical data...
Loading historical data...
Loading historical data...

Documentation

Showing up to 5 results
|